Location: Little Elm
(33.1626°N, 96.9375°W)
Time: 12:14:27
(UTC+00:00)

ISS - Visible Passes

Search period start: 17 May 2022 00:00
Search period end: 27 May 2022 00:00
Orbit: 415 x 422 km, 51.6° (Epoch: 17 May)

Date Brightness Start Highest point End Pass type
(mag) Time Alt. Az. Time Alt. Az. Time Alt. Az.
17 May -0.7 02:39:40 10° W 02:42:07 19° NW 02:44:35 10° NNE visible
18 May -1.6 01:51:04 10° WSW 01:54:05 30° NW 01:57:06 10° NNE visible
20 May -0.5 01:53:33 10° WNW 01:55:08 13° NNW 01:56:43 10° N visible
